(77762) = 2001 PA49

Discovered at Palomar on 2001-08-14 by NEAT.

Orbit

Orbit type: Main Belt

Note: WebGL enabled browser required.

epoch2024-03-31.0
epoch JD2460400.5
perihelion date2022-11-23.11135
perihelion JD2459906.61135
argument of perihelion (°)278.38077
ascending node (°)77.88008
inclination (°)11.57427
eccentricity0.1340842
perihelion distance (AU)2.6035562
Tisserand w.r.t. Jupiter3.2
ΔV w.r.t. Earth (km/sec)10.7
semimajor axis (AU)3.0067082
mean anomaly (°)93.36755
mean daily motion (°/day)0.18904580
aphelion distance (AU)3.410
period (years)5.21
P-vector [x]0.97820231
P-vector [y]0.02299939
P-vector [z]-0.20637653
Q-vector [x]0.06811187
Q-vector [y]0.90332582
Q-vector [z]0.42351296
absolute magnitude13.97
phase slope0.15
uncertainty0
referenceMPEC 2024-E179
observations used2251
oppositions19
arc length (days)8693
first opposition used2000
last opposition used2024
residual rms (arc-secs)0.65
perturbers coarse indicatorM-v
perturbers precise indicator003Ek
first observation date used2000-05-25.0
last observation date used2024-03-13.0
computer nameMPCLINUX
JD of orbit computation2456819.418028
perihelion JD uncertainty (days)1.1163E-04
argument of perihelion uncertainty (°)3.2692E-05
ascending node uncertainty (°)2.4895E-05
inclination uncertainty (°)5.7904E-06
eccentricity uncertainty 5.4655E-08
perihelion distance uncertainty (AU)1.6443E-07
Minimum Orbit Intersection Distances (in AU)
for orbit epoch: 2460400.5, reference: E2024-DD6
Mercury2.22876
Venus1.8868
Earth1.63167
Mars1.24936
Jupiter2.12896
Saturn5.94551
Uranus15.1092
Neptune27.0145

Observations

2274 total observations over interval: 2000 05 25.24108 – 2024 03 13.125053
These data are available for download (format description).

Date (UT) J2000 RA J2000 Dec Magn Location Ref
2000 05 25.24108 15 16 06.32 -10 52 59.0 18.2 R 699 – Lowell Observatory-LONEOS MPS 35904
2000 05 25.26195 15 16 05.30 -10 52 58.3   699 – Lowell Observatory-LONEOS MPS 35904
2000 05 25.28290 15 16 04.13 -10 52 58.4   699 – Lowell Observatory-LONEOS MPS 35904
2000 05 25.30386 15 16 03.13 -10 52 59.2   699 – Lowell Observatory-LONEOS MPS 35904
2000 06 06.25990 15 07 01.81 -10 59 40.1 18.3 R 699 – Lowell Observatory-LONEOS MPS 35904
2000 06 06.27017 15 07 01.36 -10 59 42.1   699 – Lowell Observatory-LONEOS MPS 35904
2000 06 06.28046 15 07 01.01 -10 59 41.7   699 – Lowell Observatory-LONEOS MPS 35904
2000 06 06.29076 15 07 00.38 -10 59 42.7   699 – Lowell Observatory-LONEOS MPS 35904
2000 07 05.17874 14 55 31.56 -12 06 19.8 19.2 R 699 – Lowell Observatory-LONEOS MPS 35904
2000 07 05.19268 14 55 31.32 -12 06 22.6   699 – Lowell Observatory-LONEOS MPS 35904
2000 07 05.20656 14 55 31.40 -12 06 26.7   699 – Lowell Observatory-LONEOS MPS 35904
2000 07 05.22049 14 55 31.24 -12 06 28.7   699 – Lowell Observatory-LONEOS MPS 35904
2001 08 02.27314 22 22 36.89 -27 28 47.6 18.0   644 – Palomar Mountain/NEAT MPS 34560
2001 08 02.28443 22 22 36.47 -27 28 53.0 17.5   644 – Palomar Mountain/NEAT MPS 34560
2001 08 02.30025 22 22 35.85 -27 29 00.4 17.5   644 – Palomar Mountain/NEAT MPS 34560
2001 08 14.37804 22 14 05.86 -28 57 46.5 17.5   644 – Palomar Mountain/NEAT MPS 33474
2001 08 14.38875 22 14 05.34 -28 57 50.8 17.6   644 – Palomar Mountain/NEAT MPS 33474
2001 08 14.39925 22 14 04.85 -28 57 54.8 17.5   644 – Palomar Mountain/NEAT MPS 33474
2001 08 21.35462 22 08 27.05 -29 40 22.2 17.4   644 – Palomar Mountain/NEAT MPS 33474
2001 08 21.36627 22 08 26.44 -29 40 25.9 17.2   644 – Palomar Mountain/NEAT MPS 33474
2001 08 21.37805 22 08 25.84 -29 40 29.6 17.5   644 – Palomar Mountain/NEAT MPS 33474
2001 08 25.23001 22 05 15.12 -30 00 05.9 17.6   644 – Palomar Mountain/NEAT MPS 33474
2001 08 25.25113 22 05 14.04 -30 00 11.8 17.3   644 – Palomar Mountain/NEAT MPS 33474
2001 08 25.27249 22 05 12.94 -30 00 17.9 17.4   644 – Palomar Mountain/NEAT MPS 33474
2001 09 06.20214 21 55 52.97 -30 40 04.8 18.0   644 – Palomar Mountain/NEAT MPS 34560
2001 09 06.22303 21 55 52.05 -30 40 07.4 18.1   644 – Palomar Mountain/NEAT MPS 34560
2001 09 06.24416 21 55 51.08 -30 40 09.9 18.2   644 – Palomar Mountain/NEAT MPS 34560
2001 09 18.21168 21 48 34.19 -30 46 23.4 17.9   644 – Palomar Mountain/NEAT MPS 35904
2001 09 18.23367 21 48 33.52 -30 46 22.3 17.8   644 – Palomar Mountain/NEAT MPS 35904
2001 09 18.25510 21 48 32.86 -30 46 21.1 17.7   644 – Palomar Mountain/NEAT MPS 35904
2001 09 23.13145 21 46 29.78 -30 39 29.4 18.0   644 – Palomar Mountain/NEAT MPS 43596
2001 09 23.15300 21 46 29.27 -30 39 27.0 18.0   644 – Palomar Mountain/NEAT MPS 43596
2001 09 23.17538 21 46 28.74 -30 39 24.5 17.9   644 – Palomar Mountain/NEAT MPS 43596
2001 10 08.24281 21 44 06.11 -29 48 28.8 18.8   644 – Palomar Mountain/NEAT MPS 37737
2001 10 08.26521 21 44 06.15 -29 48 22.2 19.2   644 – Palomar Mountain/NEAT MPS 37737
2001 10 08.28627 21 44 06.17 -29 48 16.1 19.8   644 – Palomar Mountain/NEAT MPS 37737
2001 10 14.09572 21 44 49.77 -29 18 28.6 17.9 R 699 – Lowell Observatory-LONEOS MPS 37737
2001 10 14.12226 21 44 50.13 -29 18 19.1   699 – Lowell Observatory-LONEOS MPS 37737
2001 10 14.14887 21 44 50.33 -29 18 10.9   699 – Lowell Observatory-LONEOS MPS 37737
2001 10 14.17556 21 44 50.58 -29 18 01.4   699 – Lowell Observatory-LONEOS MPS 37737
2001 11 19.22633 22 07 01.48 -24 46 08.3 20.5   608 – Haleakala-AMOS MPS 41853
2001 11 19.23686 22 07 02.12 -24 46 02.6 19.9   608 – Haleakala-AMOS MPS 41853
2001 11 19.24755 22 07 02.73 -24 45 56.4 20.0   608 – Haleakala-AMOS MPS 41853
2002 10 29.38381 05 27 37.58 +20 12 45.0 18.9 V 291 – LPL/Spacewatch II MPS 67832
2002 10 29.40852 05 27 37.07 +20 12 48.6 19.0 V 291 – LPL/Spacewatch II MPS 67832
2002 10 29.43432 05 27 36.54 +20 12 52.2 19.0 V 291 – LPL/Spacewatch II MPS 67832
2002 11 05.30956 05 24 49.79 +20 29 02.1 19.6   704 – Lincoln Laboratory ETS, New Mexico MPS 65813
2002 11 05.32677 05 24 49.18 +20 29 05.3 19.6   704 – Lincoln Laboratory ETS, New Mexico MPS 65813
2002 11 05.34386 05 24 48.68 +20 29 07.3 19.7   704 – Lincoln Laboratory ETS, New Mexico MPS 65813
2002 11 05.36099 05 24 48.15 +20 29 09.6 19.4   704 – Lincoln Laboratory ETS, New Mexico MPS 65813
2002 11 05.37818 05 24 47.64 +20 29 13.4 20.1   704 – Lincoln Laboratory ETS, New Mexico MPS 65813
2002 11 06.32551 05 24 18.71 +20 31 29.0 19.4   704 – Lincoln Laboratory ETS, New Mexico MPS 65813
2002 11 06.34231 05 24 18.16 +20 31 31.6 19.8   704 – Lincoln Laboratory ETS, New Mexico MPS 65813
2002 11 06.35912 05 24 17.66 +20 31 31.9 20.6   704 – Lincoln Laboratory ETS, New Mexico MPS 65813
2002 11 06.37593 05 24 17.03 +20 31 35.5 20.7   704 – Lincoln Laboratory ETS, New Mexico MPS 65813
2002 11 06.39273 05 24 16.50 +20 31 39.2 19.7   704 – Lincoln Laboratory ETS, New Mexico MPS 65813
2002 11 14.33817 05 19 20.47 +20 51 01.7 18.4   704 – Lincoln Laboratory ETS, New Mexico MPS 65813
2002 11 14.35600 05 19 19.66 +20 51 04.4 19.0   704 – Lincoln Laboratory ETS, New Mexico MPS 65813
2002 11 14.37372 05 19 18.87 +20 51 07.4 19.0   704 – Lincoln Laboratory ETS, New Mexico MPS 65813
2002 11 14.39134 05 19 18.08 +20 51 09.8 18.9   704 – Lincoln Laboratory ETS, New Mexico MPS 65813
2002 11 14.40915 05 19 17.29 +20 51 12.2 19.0   704 – Lincoln Laboratory ETS, New Mexico MPS 65813
2002 12 05.28850 05 00 53.01 +21 41 29.7 18.4   704 – Lincoln Laboratory ETS, New Mexico MPS 67832
2002 12 05.30398 05 00 52.02 +21 41 32.2 19.0   704 – Lincoln Laboratory ETS, New Mexico MPS 67832
2002 12 05.31929 05 00 51.16 +21 41 34.1 18.7   704 – Lincoln Laboratory ETS, New Mexico MPS 67832
2002 12 05.33468 05 00 50.22 +21 41 36.0 18.5   704 – Lincoln Laboratory ETS, New Mexico MPS 67832
2002 12 05.35000 05 00 49.28 +21 41 37.5 18.7   704 – Lincoln Laboratory ETS, New Mexico MPS 67832
2002 12 10.21568 04 56 02.45 +21 52 31.3 18.8   704 – Lincoln Laboratory ETS, New Mexico MPS 67832
2002 12 10.22806 04 56 01.65 +21 52 33.6 17.7   704 – Lincoln Laboratory ETS, New Mexico MPS 67832
2002 12 10.23119 04 56 01.43 +21 52 33.4 18.1   704 – Lincoln Laboratory ETS, New Mexico MPS 67832
2002 12 10.24351 04 56 00.74 +21 52 35.7 18.0   704 – Lincoln Laboratory ETS, New Mexico MPS 67832
2002 12 10.24649 04 56 00.54 +21 52 35.1 18.3   704 – Lincoln Laboratory ETS, New Mexico MPS 67832
2002 12 10.25883 04 55 59.82 +21 52 38.1 17.8   704 – Lincoln Laboratory ETS, New Mexico MPS 67832
2002 12 10.26182 04 55 59.60 +21 52 37.4 18.2   704 – Lincoln Laboratory ETS, New Mexico MPS 67832
2002 12 10.27417 04 55 58.90 +21 52 39.9 18.0   704 – Lincoln Laboratory ETS, New Mexico MPS 67832
2002 12 10.27716 04 55 58.67 +21 52 39.4 18.0   704 – Lincoln Laboratory ETS, New Mexico MPS 67832
2002 12 10.28952 04 55 57.97 +21 52 41.7 18.0   704 – Lincoln Laboratory ETS, New Mexico MPS 67832
2002 12 10.35439 04 55 53.99 +21 52 49.6 18.4 V 291 – LPL/Spacewatch II MPS 67832
2002 12 10.40074 04 55 51.17 +21 52 55.6 19.0 V 291 – LPL/Spacewatch II MPS 67832
2002 12 10.42579 04 55 49.70 +21 52 58.5 19.0 V 291 – LPL/Spacewatch II MPS 67832
2002 12 11.22274 04 55 03.46 +21 54 44.5 18.3 R 678 – Fountain Hills MPS 67832
2002 12 11.24563 04 55 02.07 +21 54 47.1 18.8 R 678 – Fountain Hills MPS 67832
2002 12 11.26591 04 55 00.88 +21 54 49.8 18.4 R 678 – Fountain Hills MPS 67832
2002 12 14.16975 04 52 12.52 +22 01 05.8 18.2 V 291 – LPL/Spacewatch II MPS 67832
2002 12 14.19488 04 52 11.04 +22 01 09.2 18.3 V 291 – LPL/Spacewatch II MPS 67832
2002 12 14.22011 04 52 09.61 +22 01 12.5 17.5 V 291 – LPL/Spacewatch II MPS 67832
2002 12 16.53933 04 49 57.53 +22 06 07.2 18.7   608 – Haleakala-AMOS MPS 67832
2002 12 16.55002 04 49 56.94 +22 06 08.6 18.5   608 – Haleakala-AMOS MPS 67832
2002 12 16.56018 04 49 56.33 +22 06 10.2 18.6   608 – Haleakala-AMOS MPS 67832
2002 12 21.56903 04 45 24.20 +22 16 30.7 19.7   608 – Haleakala-AMOS MPS 69759
2002 12 21.57937 04 45 23.66 +22 16 31.7 19.2   608 – Haleakala-AMOS MPS 69759
2002 12 21.59030 04 45 23.05 +22 16 33.3 19.6   608 – Haleakala-AMOS MPS 69759
2002 12 31.22019 04 37 47.70 +22 35 58.6 18.2   704 – Lincoln Laboratory ETS, New Mexico MPS 69759
